Regional Weather Roundup
Issued by NWS Spokane, WA

Home | Current Version | Previous Version | Text Only | Print | Product List | Glossary On
Versions: 1 2 3 4 5 6 7 8 9 10 11 12 13 14 15 16 17 18 19 20 21 22 23 24 25 26 27 28 29 30 31 32 33 34 35 36 37 38 39 40 41 42 43 44 45 46 47 48 49 50
823
NZUS01 KOTX 300610
RWROTX
EASTERN WASHINGTON/NORTHERN IDAHO ROUNDUP
NATIONAL WEATHER SERVICE, SPOKANE WA
1100 PM PDT FRI APR 29 2016

Note: "fair" indicated few or no clouds below 12,000 feet with no
significant weather and/or obstructions to visibility.

...NORTHEAST WASHINGTON AND NORTHERN IDAHO PANHANDLE...

CITY           SKY/WX    TMP DP  RH WIND       PRES   REMARKS
SPOKANE INTL   LGT RAIN  49  45  86 S5        30.03S
SPOKANE DOWNTO LGT RAIN  50  47  89 NE6       30.05R
COEUR D ALENE  CLOUDY    46  45  93 N3        30.03S
DEER PARK      RAIN      47  45  93 E3        30.05R FOG
SANDPOINT      CLOUDY    46  43  87 CALM      30.05R

...SOUTHEAST WASHINGTON AND SOUTHERN IDAHO PANHANDLE...

CITY           SKY/WX    TMP DP  RH WIND       PRES   REMARKS
WALLA WALLA    CLOUDY    54  43  66 S8        30.06S
PULLMAN/MOSCOW LGT RAIN  47  45  93 W3        30.07R
LEWISTON       LGT RAIN  49  48  97 CALM      30.06R
LOWELL           N/A     47  45  93 CALM      30.08R

...COLUMBIA BASIN...

CITY           SKY/WX    TMP DP  RH WIND       PRES   REMARKS
EPHRATA        MOCLDY    52  44  74 VRB5      30.05R
MOSES LAKE     MOCLDY    52  44  74 NE8       30.05R
TRI CITIES     CLOUDY    53  40  61 NW5       30.06R
HERMISTON      PTCLDY    52  40  63 W7        30.07R
PENDLETON      CLOUDY    53  37  54 W14       30.06R

...EAST SLOPES CASCADES...

CITY           SKY/WX    TMP DP  RH WIND       PRES   REMARKS
THE DALLES     CLEAR     57  39  51 W9        30.12R
YAKIMA         CLEAR     55  32  41 NW8G21    30.10R
ELLENSBURG     CLOUDY    51  36  56 NW26G35   30.08R
STAMPEDE PASS  FOG       36  34  92 VRB3      30.17R VSB 1/4
WENATCHEE      CLOUDY    55  33  43 W15       30.08R
OMAK           CLOUDY    57  40  52 N10       30.04R

...SOUTHERN BRITISH COLUMBIA...

CITY           SKY/WX    TMP DP  RH WIND       PRES   REMARKS
PENTICTON      MOCLDY    54  41  62 N6        30.07R
CRANBROOK      CLOUDY    46  37  71 S7        30.03R

...WESTERN MONTANA...

CITY           SKY/WX    TMP DP  RH WIND       PRES   REMARKS
MISSOULA       LGT RAIN  45  39  79 NE5       30.04R

...NEIGHBORING CITIES...

CITY           SKY/WX    TMP DP  RH WIND       PRES   REMARKS
SEATTLE        PTCLDY    54  42  64 E6        30.23R
CALGARY        CLOUDY    45  32  61 SE8       30.06R



USA.gov is the U.S. government's official web portal to all federal, state and local government web resources and services.